TimeCDT,TemperatureF,Dew PointF,Humidity,Sea Level PressureIn,VisibilityMPH,Wind Direction,Wind SpeedMPH,Gust SpeedMPH,PrecipitationIn,Events,Conditions,WindDirDegrees,DateUTC
12:56 AM,36.0,33.1,89,29.78,-9999.0,Calm,Calm,-,N/A,,Unknown,0,2014-03-21 05:56:00
1:56 AM,37.0,34.0,89,29.75,-9999.0,East,5.8,-,N/A,,Unknown,100,2014-03-21 06:56:00
2:56 AM,36.0,34.0,93,29.76,-9999.0,Calm,Calm,-,N/A,,Unknown,0,2014-03-21 07:56:00
3:56 AM,36.0,34.0,93,29.71,-9999.0,SSE,8.1,-,0.04,,Unknown,160,2014-03-21 08:56:00
4:56 AM,35.1,34.0,96,29.72,-9999.0,West,4.6,-,0.01,,Unknown,270,2014-03-21 09:56:00
5:56 AM,37.0,36.0,96,29.72,-9999.0,NW,3.5,-,N/A,,Unknown,310,2014-03-21 10:56:00
6:56 AM,37.0,34.0,89,29.73,-9999.0,NW,16.1,-,N/A,,Unknown,310,2014-03-21 11:56:00
7:56 AM,34.0,33.1,96,29.78,-9999.0,NNW,23.0,32.2,N/A,,Unknown,340,2014-03-21 12:56:00
8:56 AM,34.0,33.1,96,29.82,-9999.0,NNW,26.5,33.4,N/A,,Unknown,340,2014-03-21 13:56:00
9:56 AM,32.0,30.0,92,29.88,-9999.0,North,29.9,35.7,N/A,,Unknown,360,2014-03-21 14:56:00
10:56 AM,32.0,28.0,85,29.92,-9999.0,North,26.5,39.1,N/A,,Unknown,360,2014-03-21 15:56:00
11:56 AM,33.1,28.0,82,29.97,-9999.0,North,25.3,42.6,N/A,,Unknown,360,2014-03-21 16:56:00
12:56 PM,32.0,27.0,82,30.02,-9999.0,North,31.1,38.0,N/A,,Unknown,350,2014-03-21 17:56:00
1:56 PM,28.9,23.0,78,30.08,-9999.0,North,33.4,40.3,N/A,,Unknown,360,2014-03-21 18:56:00
2:56 PM,27.0,21.0,78,30.13,-9999.0,North,28.8,40.3,N/A,,Unknown,360,2014-03-21 19:56:00
3:56 PM,27.0,19.9,75,30.16,-9999.0,North,28.8,38.0,N/A,,Unknown,360,2014-03-21 20:56:00
4:56 PM,25.0,17.1,72,30.19,-9999.0,North,29.9,38.0,N/A,,Unknown,360,2014-03-21 21:56:00
5:56 PM,27.0,17.1,66,30.22,-9999.0,North,27.6,33.4,N/A,,Unknown,360,2014-03-21 22:56:00
6:56 PM,24.1,14.0,65,30.25,-9999.0,North,21.9,34.5,N/A,,Unknown,350,2014-03-21 23:56:00
7:56 PM,21.0,10.9,65,30.31,-9999.0,North,26.5,34.5,N/A,,Unknown,350,2014-03-22 00:56:00
8:56 PM,19.0,10.9,71,30.34,-9999.0,North,24.2,31.1,N/A,,Unknown,360,2014-03-22 01:56:00
9:56 PM,18.0,8.1,65,30.39,-9999.0,North,24.2,31.1,N/A,,Unknown,360,2014-03-22 02:56:00
10:56 PM,17.1,7.0,65,30.41,-9999.0,North,24.2,29.9,N/A,,Unknown,360,2014-03-22 03:56:00
11:56 PM,15.1,5.0,64,30.44,-9999.0,North,20.7,-,N/A,,Unknown,360,2014-03-22 04:56:00